User: anonymous   Login
Location: Koussan�
(15.2012°N, 12.5548°W)
Time: 09:44:19
(UTC+00:00)
Language:

Cosmos 1908 - Orbit

View from above orbital plane
View from above orbital plane
View from above satellite
View from above satellite

Ground track
Ground track

The orbit data is extracted from the following two-line orbital elements,

1 18748U 88001A   21018.99905514  .00000574  00000-0  28861-4 0  9994
2 18748  82.4707 204.5771 0014345  39.1133 321.1133 15.15165124804312
Epoch (UTC): 18 January 2021 23:58:38
Eccentricity: 0.0014345
inclination: 82.4707°
perigee height: 510 km
apogee height: 530 km
right ascension of ascending node: 204.5771°
argument of perigee: 39.1133°
revolutions per day: 15.15165124
mean anomaly at epoch: 321.1133°
orbit number at epoch: 80431

The dashed part of the orbit path shows where the satellite is in the earth's shadow,  

DLR